Location: Ailly
(50.0793°N, 1.9944°E)
Time: 21:40:59
(UTC+00:00)

SJ-12 - Pass Details

Date: 15 January 2026
Orbit: 514 x 525 km, 97.8° (Epoch: 17 February)

Event Time Altitude Azimuth Distance (km) Brightness Sun altitude
Rises 06:33:01 0° 15° (NNE) 2,676 7.3 -11.2°
Reaches altitude 10° 06:35:09 10° 18° (NNE) 1,780 6.4 -10.9°
Maximum altitude 06:38:59 72° 103° (ESE) 558 4.0 -10.3°
Drops below altitude 10° 06:42:46 10° 188° (S) 1,758 6.6 -9.7°
Sets 06:44:52 0° 190° (S) 2,639 7.5 -9.4°
